Voltar ao catálogo

SL-24 DEB

AtivoSSO
NORAD 37796·DEBRIS·🇷🇺 Russia

Lançado Aug 17, 2011 de Dombarovsky

Loading…

Próximas Passagens (próximas 24 horas)

TLE

AtualizadoSource: Space-Track

Época: Sep 14, 2026, 14:21 UTC

1 37796U 11044J   26257.59821201  .00000507  00000-0  10287-3 0  9995
2 37796  97.9665 220.2741 0011616 252.2362 167.7456 14.65167457803576

Acompanhe SL-24 DEB em tempo real com AllMySat

Download on the App Store